ONEWEB-0680, 56716

Orbit data source: Space-Track

ONEWEB-0680, 56716 is a payload satellite owned by One Web (NAA) (UK) in LEO that was launched on Sat, 20 May 2023 UTC via an FALCON 9 launch vehicle from the Air Force Western Test Range (AFWTR). Payloads include a variety of satellites, spacecraft, and rockets equipped with specific instruments for various scientific and technological missions. These include communications satellites like Starlink; space stations such as the ISS; scientific satellites like the Hubble; Earth observation satellites from companies like Planet Labs, Umbra, and HawkEye 360; GPS; miniature CubeSats for education and research; and military/defense satellites.

Loading next visibility...
ONEWEB-0680 details
Identifier
56716, 2023-068G
Orbit
LEO
Last TLE update18 hours ago
Origin
Flag of UKOne Web (NAA) (UK)
ManufacturerOne Web
MissionOperational Commercial Communications
Bus & MotorARROW, Unknown motor
Mass148 kg wet, ~140 kg dry
Launch date (UTC)
2023-05-20 (2 years ago)
Launch vehicle
FALCON 9
Launch site
Air Force Western Test Range (AFWTR)
Object type
Payload
Rocket body
Debris
Shape & HBRTrap Box + 2 Pan, 5 m
Radar Cross Section2.032 m², Large (>1 m²)

Expand to show TLE details & history

TLE from 18 hours ago
0 ONEWEB-0680
1 56716U 23068G   25014.87965091  .00000036  00000-0  54769-4 0  9995
2 56716  87.9293 347.2724 0002559  81.1777 278.9646 13.21827810 82629
Epoch: 2025-01-14T21:06Z
Definitive object data (Epoch: 2025-01-14T21:06:41.838Z)
Latitude-0.00009°
Longitude-83.98194°
Altitude1,180.35 km
Speed7.263 km/s
True Right ascension23h 09m 05s
True Declination0° 00' 00"
Sunlit
Object was in daylight at TLE epoch
Visualization TLE readout
Latitude47.90998°
Longitude-81.85185°
Altitude1,183.603 km
Speed7.267 km/s
Apparent Right ascension01h 41m 46s
Apparent Declination10° 45' 29"
Sunlit
Object is in daylight
Visualization observer readout
Local Sidereal Time16:12:02
Azimuth42.979° NE
Elevation-28.52°
Doppler factor1
Orbital elements
Apogee altitude1,176.782 km
Perigee altitude1,172.916 km
Semi-major axis7,552.986 km
Eccentricity0.0002559
Inclination87.9293°
RAAN347.2724°
Arg. of periapsis81.1777°
True anomaly278.93563°
Mean anomaly278.9646°
Eccentric anomaly278.95012°
Mean motion3.30647 °/min
BSTAR0.000054769
Orbital period108.88 mins
Loading maneuver chart data...
Loading historical data...
Loading historical data...
Loading historical data...
Loading historical data...
Loading historical data...
Loading historical data...
Loading historical data...

ONEWEB-0680 Visibility forecast

Observer location: undefined°, undefined

Span
Click to sort rows by Start time (UTC) header in descending order
Start Az.
Max El. time (UTC)
Max El. Az.
Max El.
End time (UTC)
End Az.
8 mins2025-01-15 20:52:10.624Z112.778° SE2025-01-15 20:56:10.624Z78.121° E17.277°2025-01-15 21:00:10.624Z40.394° NE
12 mins2025-01-15 22:39:10.624Z187.11° SSW2025-01-15 22:45:10.624Z300.507° NW43.847°2025-01-15 22:51:10.624Z356.601° N
13 mins2025-01-16 10:03:10.624Z2.552° NNE2025-01-16 10:09:10.624Z98.251° ESE44.581°2025-01-16 10:16:10.624Z176.81° S
7 mins2025-01-16 11:54:10.624Z315.347° NNW2025-01-16 11:57:10.624Z287.507° WNW16.318°2025-01-16 12:01:10.624Z252.07° W
|